AirNav   Air Wisconsin pilot careers
 
 1579 users online  

AZ72 Police & Public Safety Building Heliport
Phoenix, Arizona, USA

GOING TO PHOENIX?


FAA INFORMATION EFFECTIVE 24 MAY 2018

Location

FAA Identifier: AZ72
Lat/Long: 33-26-55.1570N / 112-04-55.5350W
33-26.919283N / 112-04.925583W
33.4486547 / -112.0820931
(estimated)
Elevation: 1146 ft. / 349 m (estimated)
Variation: 13E (1985)
From city: 1 mile W of PHOENIX, AZ
Time zone: UTC -7 (year round; does not observe DST)
Zip code: 85003

Heliport Operations

Heliport use: Private use. Permission required prior to landing
Activation date: 11/1983
Control tower: no
ARTCC: ALBUQUERQUE CENTER
FSS: PRESCOTT FLIGHT SERVICE STATION
Attendance: UNATNDD
Wind indicator: yes
Segmented circle: no
Lights: FOR PERIMETER LIGHTS CALL 602-262-6474.

Heliport Communications

WX ASOS at PHX (4 nm E): PHONE 602-231-8557
WX AWOS-3 at GEU (12 nm NW): 119.425 (623-877-8609)
WX ASOS at SDL (14 nm NE): PHONE 480-483-3049
WX ASOS at DVT (14 nm N): PHONE 623-587-7764
WX ASOS at LUF (16 nm W): 267.4 (623-877-8609)
WX AWOS-3PT at CHD (17 nm SE): 128.325 (480-814-9952)
WX ASOS at FFZ (18 nm E): 118.25 (480-641-4111)

Nearby radio navigation aids

VOR radial/distance  VOR name  Freq  Var
PXRr268/5.7PHOENIX VORTAC115.6012E
IWAr279/23.3WILLIE VORTAC113.3013E
TFDr334/34.9STANFIELD VORTAC114.8012E
BXKr076/37.2BUCKEYE VORTAC110.6014E

 
NDB name  Hdg/Dist  Freq  Var  ID
CHANDLER297/17.640712ECHD -.-. .... -..

Heliport Services

Runway Information

Helipad H1

Dimensions: 40 x 40 ft. / 12 x 12 m
Surface: concrete
Runway edge lights: HELIPAD LGTD WITH PERIMETER LIGHTS.
Latitude: 33-26.919333N
Longitude: 112-04.925667W
Elevation: 1146.0 ft.
Traffic pattern: leftleft

Heliport Ownership and Management from official FAA records

Ownership: Publicly-owned
Owner: PHOENIX POLICE DEPARTMENT
620 WEST WASHINGTON
PHOENIX, AZ 85003-2187
Phone 602-262-6747
Manager: JOE YAHNER
620 WEST WASHINGTON
PHOENIX, AZ 85003-2187
Phone 602-262-6747

Instrument Procedures

There are no published instrument procedures at AZ72.

Some nearby airports with instrument procedures:

KPHX - Phoenix Sky Harbor International Airport (4 nm E)
KGEU - Glendale Municipal Airport (12 nm NW)
P19 - Stellar Airpark (12 nm SE)
KSDL - Scottsdale Airport (14 nm NE)
KDVT - Phoenix Deer Valley Airport (14 nm N)
KGYR - Phoenix Goodyear Airport (15 nm W)
KLUF - Luke Air Force Base (16 nm W)
KCHD - Chandler Municipal Airport (17 nm SE)
KFFZ - Falcon Field Airport (18 nm E)
 
Loc | Ops | Rwys | IFR | FBO | Links
Com | Nav | Svcs | Stats | Notes

AirNav Hotels Sweepstakes
 
Area around AZ72 (Police & Public Safety Building Heliport)
 
Road maps at: MapQuest Bing Google
 
Aerial photo
No photo
 
Sectional chart

 
Airport distance calculator
Flying to Police & Public Safety Building Heliport? Find the distance to fly.

From to AZ72

Sunrise and sunset
Times for 25-May-2018
 Local
(UTC-7)
 Zulu
(UTC)
Morning civil twilight04:5511:55
Sunrise05:2312:23
Sunset19:2702:27
Evening civil twilight19:5602:56

Current date and time
Zulu (UTC)  25-May-2018 14:30:18
Local (UTC-7)  25-May-2018 07:30:18
 
METAR
KPHX 
2nm SE 
251351Z 08008KT 10SM FEW250 24/01 A2996 RMK AO2 SLP128 T02390011
KGEU 
12nm NW 
251350Z 00000KT 10SM SKC 24/00 A2998
KSDL 
13nm NE 
251353Z 00000KT 10SM CLR 25/01 A3000 RMK AO2 SLP133 T02500011
KDVT 
14nm N 
251353Z AUTO 08003KT 10SM CLR 24/M04 A2998 RMK AO2 SLP129 T02391044
KGYR 
14nm W 
251347Z VRB04KT 10SM SKC 23/00 A2997
KLUF 
15nm W 
251358Z AUTO 35004KT 10SM CLR 23/02 A2996 RMK AO2 SLP133 T02250020 $
KCHD 
17nm SE 
251347Z COR 00000KT 10SM CLR 22/05 A2998
KFFZ 
18nm E 
251359Z 00000KT 30SM SKC 25/01 A3000
TAF
KPHX 
2nm SE 
251120Z 2512/2618 11006KT P6SM SKC FM251900 19007KT P6SM SKC FM252100 24008KT P6SM SKC FM260100 27012KT P6SM FEW250 FM260400 26007KT P6SM FEW250
KSDL 
13nm NE 
251120Z 2512/2612 VRB03KT P6SM SKC FM251700 15007KT P6SM SKC FM252100 24008KT P6SM SKC FM260500 VRB04KT P6SM FEW250
KLUF 
15nm W 
251202Z 2512/2618 35006KT 9999 SKC QNH2992INS BECMG 2517/2518 15012KT 9999 SKC QNH2983INS BECMG 2523/2524 22012G18KT 9999 SKC QNH2982INS BECMG 2605/2606 25006KT 9999 SKC QNH2984INS BECMG 2616/2617 23012KT 9999 SKC QNH2985INS TX37/2521Z TN16/2612Z
NOTAMs
Click for the latest NOTAMs
NOTAMs are issued by the DoD/FAA and will open in a separate window not controlled by AirNav.

 

 
 

Would you like to see your business listed on this page?

 If your business provides an interesting product or service to pilots, flight crews, aircraft, or users of the Police & Public Safety Building Heliport, you should consider listing it here.  To start the listing process, click on the button below
 
Add a business
 

Other Pages about Police & Public Safety Building Heliport

Update a link
 
Copyright © AirNav, LLC. All rights reserved. Privacy Policy  Contact